Overview Statistics Trail Chart Weather Telemetry Raw packets
 

This is the latest recevied weather packets stored in our database for station/object SV4JYD-14. If no packets are shown the sender has not sent any weather packets the latest 10 day(s).

<< 23 24 25 26 27 28 29 >>
Time Temp. Humidity Pressure Rain* Wind** Luminosity Snow
1777475216 20.56° C 46% 1015 hPa 0 mm - - -
1777474316 20.56° C 47% 1015 hPa 0 mm - - -
1777473416 20.56° C 47% 1015 hPa 0 mm - - -
1777472516 20.56° C 48% 1016 hPa 0 mm - - -
1777471615 21.11° C 47% 1016 hPa 0 mm - - -
1777470715 22.22° C 40% 1016 hPa 0 mm - - -
1777469815 22.22° C 40% 1016 hPa 0 mm - - -
1777468915 22.22° C 40% 1016 hPa 0 mm - - -
1777468014 22.22° C 35% 1016 hPa 0 mm - - -
1777467114 22.22° C 35% 1016 hPa 0 mm - - -
1777466214 22.22° C 35% 1016 hPa 0 mm - - -
1777465313 21.67° C 40% 1017 hPa 0 mm - - -
1777464413 21.67° C 40% 1017 hPa 0 mm - - -
1777463513 21.67° C 37% 1017 hPa 0 mm - - -
1777462613 21.67° C 37% 1017 hPa 0 mm - - -
1777461712 20.56° C 43% 1017 hPa 0 mm - - -
1777460812 20.56° C 43% 1017 hPa 0 mm - - -
1777459912 20.56° C 30% 1017 hPa 0 mm - - -
1777459011 20.56° C 31% 1017 hPa 0 mm - - -
1777458111 19.44° C 45% 1018 hPa 0 mm - - -
1777457211 20° C 35% 1018 hPa 0 mm - - -
1777456311 19.44° C 39% 1017 hPa 0 mm - - -
1777455410 20° C 42% 1017 hPa 0 mm - - -
1777454510 18.89° C 45% 1018 hPa 0 mm - - -
1777453610 18.33° C 51% 1018 hPa 0 mm - - -

* Rain latest hour (hover to see other rain measurements)
** Current wind speed in m/s (hover to see current wind gust speed)